Date String (YYYY-MM-DD hh:mm:ss) UTC,Instrument flags,Ambient pressure (hPa),Sample flow (lpm),Bypass flow (lpm),Sample temperature (°C),Ambient temperature (°C),ASC tube jacket temperature (°C),LED temperature (°C),Box temperature (°C),Sample RH (%),Span deviation,Mass concentration (μg/m³),Mass concentration (μg/m³),Mass concentration (μg/m³)
DateTimeUTC,F1_M11,P_M11,Q1_M11,Q2_M11,T1_M11,T2_M11,T3_M11,T4_M11,T5_M11,U1_M11,ZSPAN_M11,X0_M11,X2_M11,X1_M11
2022-11-20 06:00:00,,0829.4,5.02,0.00,22.0,21.6,00.0,30.8,24.0,09.3,0000.0,0008.22,0004.59,0004.25
2022-11-20 06:01:00,,0829.4,5.00,0.00,22.0,21.3,00.0,30.9,23.9,09.3,0000.0,0008.28,0004.57,0004.23
2022-11-20 06:02:00,,0829.2,5.00,0.00,22.0,21.1,00.0,30.9,23.8,09.2,0000.0,0008.21,0004.55,0004.21
2022-11-20 06:03:00,,0829.2,5.00,0.00,22.0,20.8,00.0,30.9,23.7,09.1,0000.0,0008.07,0004.47,0004.16
2022-11-20 06:04:00,,0829.3,5.00,0.00,21.9,20.6,00.0,30.9,23.7,09.0,0000.0,0008.01,0004.42,0004.11
2022-11-20 06:05:00,,0829.2,5.00,0.00,21.9,20.5,00.0,30.9,23.6,09.2,0000.0,0008.00,0004.38,0004.06
2022-11-20 06:06:00,,0829.2,5.00,0.00,21.8,20.3,00.0,30.9,23.6,09.2,0000.0,0008.29,0004.33,0004.03
2022-11-20 06:07:00,,0829.2,5.00,0.00,21.8,20.2,00.0,30.8,23.5,09.3,0000.0,0008.23,0004.33,0004.03
2022-11-20 06:08:00,,0829.3,5.00,0.00,21.8,20.1,00.0,30.8,23.4,09.3,0000.0,0008.17,0004.34,0004.04
2022-11-20 06:09:00,,0829.3,5.01,0.00,21.7,20.3,00.0,30.8,23.4,09.4,0000.0,0008.44,0004.30,0004.03
2022-11-20 06:10:00,,0829.3,5.01,0.00,21.8,21.2,00.0,30.7,23.7,09.3,0000.0,0008.20,0004.27,0004.01
2022-11-20 06:11:00,,0829.3,5.00,0.00,21.9,22.1,00.0,30.7,23.9,09.4,0000.0,0008.15,0004.27,0004.02
2022-11-20 06:12:00,,0829.3,4.99,0.00,22.0,22.2,00.0,30.8,24.0,09.3,0000.0,0008.08,0004.30,0004.06
2022-11-20 06:13:00,,0829.3,4.99,0.00,22.0,21.7,00.0,30.8,24.0,09.3,0000.0,0008.11,0004.34,0004.10
2022-11-20 06:14:00,,0829.3,5.01,0.00,22.0,21.3,00.0,30.9,23.9,09.2,0000.0,0008.21,0004.37,0004.13
2022-11-20 06:15:00,,0829.3,5.01,0.00,22.0,21.0,00.0,30.9,23.8,09.2,0000.0,0008.33,0004.42,0004.17
2022-11-20 06:16:00,,0829.2,4.98,0.00,21.9,20.8,00.0,30.9,23.7,09.3,0000.0,0008.37,0004.46,0004.22
2022-11-20 06:17:00,,0829.2,5.00,0.00,21.9,20.6,00.0,30.9,23.6,09.3,0000.0,0008.12,0004.50,0004.26
2022-11-20 06:18:00,,0829.2,5.00,0.00,21.9,20.4,00.0,30.9,23.6,09.3,0000.0,0008.12,0004.53,0004.28
2022-11-20 06:19:00,,0829.3,4.99,0.00,21.8,20.3,00.0,30.9,23.5,09.3,0000.0,0008.59,0004.54,0004.28
2022-11-20 06:20:00,,0829.2,5.00,0.00,21.8,20.2,00.0,30.8,23.5,09.2,0000.0,0008.41,0004.56,0004.28
2022-11-20 06:21:00,,0829.2,5.00,0.00,21.8,20.1,00.0,30.8,23.5,09.2,0000.0,0008.42,0004.60,0004.30
2022-11-20 06:22:00,,0829.2,5.02,0.00,21.7,20.2,00.0,30.8,23.4,09.3,0000.0,0008.48,0004.63,0004.30
2022-11-20 06:23:00,,0829.3,4.99,0.00,21.8,20.9,00.0,30.7,23.6,09.3,0000.0,0008.60,0004.66,0004.30
2022-11-20 06:24:00,,0829.3,5.01,0.00,21.9,21.8,00.0,30.7,23.8,09.3,0000.0,0009.28,0004.69,0004.32
2022-11-20 06:25:00,,0829.3,5.00,0.00,22.0,21.8,00.0,30.8,23.9,09.4,0000.0,0009.83,0004.73,0004.36
2022-11-20 06:26:00,,0829.2,4.99,0.00,22.0,21.5,00.0,30.8,23.9,09.4,0000.0,0009.87,0004.76,0004.38
2022-11-20 06:27:00,,0829.1,5.00,0.00,22.0,21.2,00.0,30.8,23.8,09.4,0000.0,0009.90,0004.77,0004.38
2022-11-20 06:28:00,,0829.1,4.99,0.00,21.9,21.0,00.0,30.8,23.7,09.4,0000.0,0009.83,0004.74,0004.36
2022-11-20 06:29:00,,0829.1,5.00,0.00,21.9,20.7,00.0,30.8,23.7,09.3,0000.0,0010.08,0004.72,0004.34
2022-11-20 06:30:00,,0829.1,5.00,0.00,21.9,20.5,00.0,30.8,23.6,09.2,0000.0,0010.34,0004.67,0004.32
2022-11-20 06:31:00,,0829.1,5.01,0.00,21.8,20.4,00.0,30.8,23.6,09.1,0000.0,0010.21,0004.64,0004.30
2022-11-20 06:32:00,,0829.1,5.01,0.00,21.8,20.3,00.0,30.8,23.5,09.1,0000.0,0010.19,0004.62,0004.29
2022-11-20 06:33:00,,0829.1,4.98,0.00,21.8,20.2,00.0,30.8,23.5,09.1,0000.0,0010.08,0004.56,0004.27
2022-11-20 06:34:00,,0829.0,5.00,0.00,21.8,20.4,00.0,30.8,23.5,09.1,0000.0,0009.89,0004.49,0004.23
2022-11-20 06:35:00,,0829.0,5.02,0.00,21.8,21.4,00.0,30.7,23.7,09.3,0000.0,0009.17,0004.44,0004.20
2022-11-20 06:36:00,,0829.0,4.98,0.00,22.0,22.2,00.0,30.7,24.0,09.3,0000.0,0008.56,0004.39,0004.16
2022-11-20 06:37:00,,0829.0,5.01,0.00,22.0,22.3,00.0,30.7,24.1,09.1,0000.0,0008.39,0004.30,0004.09
2022-11-20 06:38:00,,0828.9,5.00,0.00,22.1,21.8,00.0,30.8,24.0,09.1,0000.0,0008.41,0004.27,0004.04
2022-11-20 06:39:00,,0828.9,5.00,0.00,22.0,21.5,00.0,30.9,23.9,09.0,0000.0,0008.37,0004.24,0004.01
2022-11-20 06:40:00,,0828.9,5.01,0.00,22.0,21.1,00.0,30.9,23.9,08.8,0000.0,0008.04,0004.18,0003.95
2022-11-20 06:41:00,,0828.8,5.01,0.00,22.0,20.9,00.0,30.9,23.8,08.7,0000.0,0006.88,0004.13,0003.90
2022-11-20 06:42:00,,0828.9,4.99,0.00,22.0,20.7,00.0,30.9,23.7,08.7,0000.0,0006.38,0004.05,0003.84
2022-11-20 06:43:00,,0828.8,5.00,0.00,21.9,20.5,00.0,30.9,23.7,08.7,0000.0,0006.27,0004.01,0003.78
2022-11-20 06:44:00,,0828.9,5.00,0.00,21.9,20.3,00.0,30.9,23.6,08.7,0000.0,0006.20,0003.97,0003.73
2022-11-20 06:45:00,,0828.8,5.02,0.00,21.8,20.1,00.0,30.9,23.5,08.7,0000.0,0006.09,0003.92,0003.68
2022-11-20 06:46:00,,0829.0,4.99,0.00,21.8,19.9,00.0,30.8,23.3,08.7,0000.0,0005.97,0003.86,0003.61
2022-11-20 06:47:00,,0829.3,4.99,0.00,21.7,19.7,00.0,30.8,23.2,08.8,0000.0,0005.74,0003.78,0003.54
2022-11-20 06:48:00,,0829.0,5.02,0.00,21.6,19.9,00.0,30.7,23.2,08.9,0000.0,0005.91,0003.76,0003.52
2022-11-20 06:49:00,,0829.3,4.98,0.00,21.7,21.1,00.0,30.7,23.5,08.8,0000.0,0005.60,0003.69,0003.48
2022-11-20 06:50:00,,0829.4,5.02,0.00,21.8,22.1,00.0,30.6,23.8,08.8,0000.0,0005.54,0003.66,0003.45
2022-11-20 06:51:00,,0829.3,4.99,0.00,21.9,22.1,00.0,30.7,23.9,08.8,0000.0,0005.50,0003.65,0003.44
2022-11-20 06:52:00,,0829.0,4.98,0.00,21.9,21.6,00.0,30.7,23.8,08.7,0000.0,0005.50,0003.63,0003.43
2022-11-20 06:53:00,,0829.2,5.01,0.00,21.9,21.2,00.0,30.8,23.8,08.6,0000.0,0005.57,0003.65,0003.44
2022-11-20 06:54:00,,0829.4,5.00,0.00,21.9,21.0,00.0,30.8,23.7,08.8,0000.0,0006.38,0003.64,0003.45
2022-11-20 06:55:00,,0829.2,5.00,0.00,21.8,20.7,00.0,30.8,23.6,08.8,0000.0,0006.72,0003.66,0003.47
2022-11-20 06:56:00,,0828.9,5.00,0.00,21.8,20.5,00.0,30.8,23.6,08.9,0000.0,0006.84,0003.69,0003.48
2022-11-20 06:57:00,,0829.3,4.99,0.00,21.8,20.4,00.0,30.8,23.5,08.9,0000.0,0006.87,0003.69,0003.49
2022-11-20 06:58:00,,0829.3,5.00,0.00,21.8,20.3,00.0,30.8,23.5,08.9,0000.0,0007.29,0003.70,0003.50
2022-11-20 06:59:00,,0829.3,5.00,0.00,21.8,20.2,00.0,30.8,23.5,08.9,0000.0,0007.87,0003.71,0003.51
